FALCON 9 DEB (52885 NORAD) Tracking and Keplerian Element Data

This shows tracking and keplerian element data for the satellite.

Feedback or suggestion? Click here.




ElementValue
Catalog52885
NameFALCON 9 DEB
Epoch Orbit321
Epoch Day188.52263366
Epoch Year2022
RAAN301.7802
Inclination53.2091
Eccentricity0.0004599
Argument of Perigee81.1646
Mean Anonmoly278.9925
Mean Motion16.43276845
Decay Rate0.06756059
L11 52885U 22062BH 22188.52263366 .06756059 12449-4 30044-3 0 9990
L22 52885 53.2091 301.7802 0004599 81.1646 278.9925 16.43276845 3218

Live tracking and technical data element details for FALCON 9 DEB (NORAD 52885). FALCON 9 DEB can be tracked NOW for your location showing map with azimuth and elevation plus other details from your city location.

Track the satellite on the map from your city or location and see movement details for azimuth, elevation, latitude, longitude, range, height, and movement on the map or in text.







IsCatalogInMostPopularTable: catalog: 52885, numindb: 7
Update: records affected: 1



GetName: 52885 FALCON 9 DEB

Hit Count: updated at: Thu, 06 Oct 2022 03:58:48 GMT